Tracking 30696 objects as of 15-Jun-2025
HD Live streaming from Space Station
objects crossing your sky now

BREEZE-M R/B

Track BREEZE-M R/B now!


NORAD ID: 34711
Int'l Code: 2009-016B
Perigee: 3,751.1 km
Apogee: 33,395.6 km
Inclination: 21.5 °
Period: 653.5 minutes
Semi major axis: 24944 km
RCS: 9.3076 m2 (large)
Launch date: April 3, 2009
Source: Commonwealth of Independent States (former USSR) (CIS)
Launch site: TYURATAM MISSILE AND SPACE COMPLEX (TTMTR)

Note: This is a ROCKET BODY
Your satellite tracking list
Your tracking list is empty




NASA's NSSDC Master Catalog

Two Line Element Set (TLE):
1 34711U 09016B   25164.61632061 -.00000144  00000-0  00000-0 0  9995
2 34711  21.4862  22.2016 5942108 236.5309  52.2852  2.20366047138423
Source of the keplerian elements: AFSPC